Date,TemperatureHighF,TemperatureAvgF,TemperatureLowF,DewpointHighF,DewpointAvgF,DewpointLowF,HumidityHigh,HumidityAvg,HumidityLow,PressureMaxIn,PressureMinIn,WindSpeedMaxMPH,WindSpeedAvgMPH,GustSpeedMaxMPH,PrecipitationSumIn
2012-1-1,58,45,37,50,38,32,100,80,45,29.50,29.03,15,4,15,0.08
2012-1-2,50,39,28,50,23,13,100,55,39,29.15,28.97,25,4,25,0.00
2012-1-3,36,24,12,15,8,-4,62,50,42,29.41,29.12,34,9,34,0.00
2012-1-4,30,18,9,10,1,-7,52,46,41,29.56,29.32,22,6,22,0.00
2012-1-5,42,29,21,20,11,4,50,46,41,29.32,29.15,22,4,22,0.00
2012-1-6,56,39,27,34,22,10,64,51,41,29.32,29.12,20,4,20,0.00
2012-1-7,64,48,38,37,29,24,63,50,38,29.32,29.06,17,4,17,0.00
2012-1-8,47,37,27,25,19,9,54,47,42,29.71,29.32,21,7,21,0.00
2012-1-9,48,31,24,24,14,10,60,50,39,29.74,29.38,12,3,12,0.00
2012-1-10,52,37,28,28,20,16,67,52,41,29.38,29.18,19,5,19,0.00
2012-1-11,57,37,30,31,21,15,62,53,37,29.50,29.35,16,2,16,0.00
2012-1-12,45,40,36,45,38,27,100,91,60,29.38,28.76,38,8,38,1.22
2012-1-13,52,38,26,52,27,9,100,68,45,29.09,28.64,34,7,34,0.00
2012-1-14,40,28,20,18,10,3,53,47,41,29.41,29.09,26,7,26,0.00
2012-1-15,29,14,9,9,-3,-8,51,45,41,29.97,29.41,32,11,32,0.00
2012-1-16,36,21,7,33,5,-10,100,50,42,30.03,25.42,20,5,20,0.00
2012-1-17,46,39,33,46,37,29,100,93,61,29.59,28.91,14,4,14,0.39
2012-1-18,48,35,19,48,19,1,100,54,39,29.56,28.91,31,11,31,0.24
2012-1-19,40,24,13,32,11,-1,100,58,41,29.68,29.35,17,2,17,0.24
2012-1-20,42,27,18,32,15,1,100,63,41,29.71,29.32,31,5,31,0.24
2012-1-21,23,20,18,17,11,2,86,67,48,29.71,29.38,24,8,24,0.00
2012-1-22,36,22,10,19,10,1,65,60,49,30.00,29.71,17,6,17,0.00
2012-1-23,51,39,27,51,34,16,100,84,63,29.94,29.29,21,5,21,0.67
2012-1-24,64,48,37,51,39,26,100,76,44,29.47,29.29,19,4,19,0.00
2012-1-25,48,37,32,27,22,19,64,54,44,29.68,29.47,21,7,25,0.00
2012-1-26,42,35,31,39,26,20,100,71,50,29.62,29.32,12,0,12,0.16
2012-1-27,57,47,39,57,45,24,100,92,54,29.32,28.67,30,6,30,0.47
2012-1-28,56,40,34,32,24,18,72,54,40,29.41,29.09,26,5,26,0.00
2012-1-29,50,37,30,26,18,11,61,46,39,29.53,29.32,21,4,21,0.00
2012-1-30,50,34,27,26,16,9,59,47,39,29.71,29.35,39,7,39,0.00
2012-1-31,60,42,30,34,24,11,67,49,37,29.71,29.41,15,2,15,0.00
2012-2-1,60,50,42,43,33,28,92,54,45,29.41,29.21,16,4,16,0.04
2012-2-2,45,38,33,33,26,22,100,63,48,29.59,29.35,17,6,17,0.00
2012-2-3,47,33,24,33,16,11,100,51,39,29.83,29.59,25,8,25,0.00
2012-2-4,52,37,27,30,19,13,56,49,41,29.74,29.50,20,5,20,0.00
2012-2-5,48,30,22,24,13,8,59,50,39,29.56,29.47,14,3,14,0.00
2012-2-6,55,36,23,30,20,10,61,53,37,29.53,29.29,17,4,17,0.00
2012-2-7,56,40,31,32,22,16,60,49,40,29.62,29.29,21,8,25,0.00
2012-2-8,44,32,25,29,16,11,95,53,40,29.74,29.47,12,2,12,0.00
2012-2-9,52,36,27,29,20,12,94,53,39,29.53,29.38,18,4,18,0.00
2012-2-10,56,39,30,38,23,12,93,53,37,29.53,29.29,15,3,16,0.00
2012-2-11,37,34,29,34,27,14,100,78,51,29.29,28.88,22,3,23,0.08
2012-2-12,36,24,16,16,6,-1,52,45,42,29.29,28.91,35,14,35,0.00
2012-2-13,49,32,18,25,14,1,60,47,39,29.38,29.23,22,5,22,0.00
2012-2-14,43,36,30,30,19,14,73,50,41,29.53,22.68,10,1,10,0.00
2012-2-15,52,41,35,41,31,22,100,70,48,29.68,29.47,12,3,12,0.00
2012-2-16,44,36,28,40,27,21,100,69,50,29.71,29.44,12,3,12,0.12
2012-2-17,54,43,34,47,33,16,100,72,43,29.44,29.23,21,4,21,0.04
2012-2-18,59,38,31,32,21,16,79,50,37,29.41,29.26,17,5,17,0.00
2012-2-19,59,38,29,32,23,13,97,59,37,29.47,29.35,17,2,17,0.00
2012-2-20,51,33,26,27,14,8,53,46,39,29.74,29.35,26,7,26,0.00
2012-2-21,51,35,22,41,20,7,100,57,39,29.77,29.23,17,3,17,0.04
2012-2-22,60,45,38,46,36,26,100,74,39,29.23,28.94,20,3,20,0.00
2012-2-23,66,47,35,48,33,17,100,64,38,29.18,28.73,26,5,26,0.00
2012-2-24,39,36,33,39,33,18,100,90,49,29.18,28.61,17,3,17,0.55
2012-2-25,52,38,30,37,21,11,100,50,39,29.26,28.64,38,12,38,0.16
2012-2-26,50,33,26,26,13,7,46,43,39,29.88,29.26,38,9,38,0.00
2012-2-27,58,39,26,33,22,7,64,49,39,29.88,29.44,22,4,22,0.00
2012-2-28,59,42,34,33,22,15,60,44,37,29.83,29.44,28,9,28,0.00
2012-2-29,40,35,31,35,25,15,100,72,45,29.83,29.21,22,4,22,0.04
2012-3-1,38,35,26,38,33,18,100,93,70,29.35,29.03,26,6,26,0.47
2012-3-2,41,32,25,35,22,18,97,67,50,29.53,29.29,12,0,12,0.04
2012-3-3,55,44,36,55,39,22,100,84,43,29.29,28.76,21,3,21,0.24
2012-3-4,44,38,31,23,20,16,54,48,43,29.06,28.91,16,1,16,0.00
2012-3-5,56,34,22,30,16,4,66,48,38,29.74,29.06,25,7,25,0.00
2012-3-6,57,31,17,30,12,3,62,47,37,30.06,29.74,21,6,21,0.00
2012-3-7,67,45,31,40,31,20,77,59,37,30.06,29.77,21,7,21,0.00
2012-3-8,72,54,46,47,42,38,93,64,41,29.77,29.23,26,10,26,0.00
2012-3-9,54,42,33,52,26,16,100,56,39,29.59,29.18,31,9,31,0.16
2012-3-10,60,35,26,33,16,8,53,45,37,29.97,29.59,26,7,26,0.00
2012-3-11,68,42,30,39,25,14,73,51,35,29.97,29.74,21,4,21,0.00
2012-3-12,87,53,38,54,34,26,73,51,33,29.74,29.56,12,4,12,0.00
2012-3-13,62,52,47,54,45,34,100,80,56,29.56,29.32,12,3,12,0.00
2012-3-14,83,57,41,52,43,33,100,67,34,29.65,29.32,22,7,22,0.04
2012-3-15,59,44,40,37,32,30,79,64,45,29.77,29.65,15,2,15,0.00
2012-3-16,46,42,37,44,34,28,100,74,61,29.77,29.53,12,0,12,0.00
2012-3-17,55,47,40,48,40,33,100,79,49,29.80,29.56,12,1,12,0.00
2012-3-18,74,50,39,51,42,38,100,80,38,29.80,29.62,15,2,15,0.00
2012-3-19,87,58,44,57,46,34,100,70,33,29.68,29.59,12,2,12,0.00
2012-3-20,86,61,50,57,46,34,100,62,36,29.77,29.68,15,2,15,0.00
2012-3-21,78,60,52,62,53,48,100,81,41,29.83,29.71,17,1,17,0.00
2012-3-22,86,64,55,63,53,47,100,74,38,29.74,29.44,12,2,12,0.00
2012-3-23,78,62,56,58,46,33,100,61,35,29.53,29.44,14,2,14,0.00
2012-3-24,70,54,45,42,31,24,57,41,35,29.53,29.44,17,3,17,0.00
2012-3-25,53,46,42,36,32,25,72,56,48,29.44,29.09,17,4,17,0.00
2012-3-26,62,45,31,44,29,11,100,58,36,29.41,29.03,35,11,35,0.00
2012-3-27,55,38,25,30,16,5,43,41,38,29.62,29.41,34,11,34,0.00
2012-3-28,56,45,35,48,31,14,100,60,41,29.56,28.94,22,3,22,0.20
2012-3-29,53,48,38,48,32,22,100,55,46,29.32,28.91,26,10,26,0.00
2012-3-30,60,46,36,33,25,18,53,44,37,29.41,29.32,26,6,26,0.00
2012-3-31,42,39,34,39,32,24,100,79,50,29.44,29.26,20,2,20,0.16
2012-4-1,52,42,32,42,34,29,100,77,46,29.29,29.00,17,2,17,0.20
2012-4-2,59,46,39,43,32,18,100,62,37,29.21,28.94,32,10,32,0.04
2012-4-3,64,48,32,36,24,12,43,39,36,29.26,29.12,27,8,27,0.00
2012-4-4,70,54,43,42,30,22,49,39,35,29.12,28.85,32,10,35,0.00
2012-4-5,60,46,35,35,26,19,60,45,37,29.29,29.06,21,8,21,0.00
2012-4-6,61,45,31,34,24,15,52,43,37,29.38,29.23,24,8,25,0.00
2012-4-7,64,47,33,37,24,13,49,41,36,29.41,29.26,34,8,34,0.00
2012-4-8,64,48,39,36,28,23,60,46,36,29.38,29.03,28,4,28,0.00
2012-4-9,64,52,42,37,29,23,54,41,36,29.03,28.91,26,7,26,0.00
2012-4-10,68,52,40,40,27,18,45,39,36,29.15,29.00,27,4,27,0.00
2012-4-11,66,48,38,39,29,22,68,47,37,29.23,29.12,20,5,20,0.00
2012-4-12,65,46,38,40,35,31,100,67,38,29.50,29.23,26,6,26,0.16
2012-4-13,68,50,35,40,35,26,100,62,35,29.59,29.44,20,4,20,0.00
2012-4-14,75,56,42,46,34,25,64,44,35,29.59,29.41,17,5,17,0.00
2012-4-15,76,62,50,50,45,40,82,55,38,29.44,29.32,16,3,16,0.00
2012-4-16,88,68,53,57,50,45,100,56,33,29.44,29.32,12,4,12,0.00
2012-4-17,86,67,52,59,48,32,100,57,33,29.53,29.29,30,9,30,0.00
2012-4-18,72,57,49,44,33,25,63,41,36,29.65,29.53,28,7,28,0.00
2012-4-19,69,55,46,43,39,37,77,57,40,29.53,29.41,16,3,16,0.00
2012-4-20,73,57,45,52,43,38,100,65,36,29.47,29.29,17,3,17,0.00
2012-4-21,76,61,53,61,52,45,100,78,42,29.29,29.12,12,2,12,0.00
2012-4-22,59,54,45,59,50,42,100,90,56,29.15,28.88,29,6,29,1.61
2012-4-23,60,52,45,60,48,34,100,85,60,28.88,28.61,18,7,18,1.77
2012-4-24,59,49,41,38,32,28,68,52,39,29.09,28.76,22,6,22,0.00
2012-4-25,68,52,40,45,36,28,100,58,36,29.29,29.09,14,2,14,0.00
2012-4-26,63,50,37,53,38,25,100,66,38,29.35,28.94,12,1,12,0.00
2012-4-27,61,50,37,54,33,18,100,55,37,29.47,28.91,31,10,31,0.04
2012-4-28,64,48,34,37,26,17,53,42,35,29.59,29.44,20,6,20,0.00
2012-4-29,65,51,36,37,27,15,52,39,35,29.65,29.41,26,6,26,0.00
2012-4-30,68,50,36,39,27,15,51,40,35,29.77,29.65,15,3,15,0.00
2012-5-1,55,50,46,54,44,30,100,84,50,29.68,29.35,21,4,21,0.59
2012-5-2,58,50,44,45,41,37,94,71,51,29.62,29.53,15,2,15,0.00
2012-5-3,52,50,48,51,49,43,100,97,77,29.62,29.53,11,0,11,0.20
2012-5-4,62,54,49,59,54,0,100,97,70,29.53,29.29,11,0,11,0.12
2012-5-5,59,55,52,55,52,47,100,89,65,29.47,29.32,0,0,0,0.00
2012-5-6,66,55,47,53,44,38,100,71,45,29.53,29.47,11,1,11,0.00
2012-5-7,73,57,47,53,43,33,100,65,36,29.56,29.50,12,2,12,0.00
2012-5-8,59,54,50,56,46,37,100,74,53,29.53,29.29,18,2,18,0.04
2012-5-9,60,58,56,60,58,56,100,100,100,29.29,28.97,9,1,9,1.81
2012-5-10,70,57,46,60,46,32,100,72,42,29.15,28.82,26,5,26,0.35
2012-5-11,69,56,44,41,35,29,69,48,37,29.47,29.15,17,4,17,0.00
2012-5-12,81,62,46,50,39,28,53,42,34,29.62,29.47,12,2,12,0.00
2012-5-13,86,66,56,54,46,39,74,49,33,29.59,29.53,12,1,12,0.00
2012-5-14,72,64,59,61,51,48,100,65,50,29.59,29.50,10,0,10,0.00
2012-5-15,67,61,58,61,55,48,100,83,53,29.59,29.38,9,0,9,1.22
2012-5-16,68,62,57,67,61,56,100,95,71,29.38,29.23,0,0,0,0.28
2012-5-17,77,62,51,59,42,35,100,51,35,29.56,29.29,16,3,16,0.00
2012-5-18,76,59,47,49,42,11,99,57,35,29.68,29.56,12,0,12,0.00
2012-5-19,86,62,44,53,42,34,75,49,33,29.62,29.53,12,1,12,0.00
2012-5-20,85,65,52,53,44,37,82,49,33,29.74,29.59,14,0,14,0.00
2012-5-21,69,61,54,63,54,37,100,81,52,29.68,29.47,12,0,12,0.00
2012-5-22,66,64,62,66,64,62,100,99,88,29.32,29.21,12,0,12,0.35
2012-5-23,79,66,60,64,58,52,100,77,45,29.47,29.23,0,0,0,0.00
2012-5-24,80,64,58,65,57,51,100,80,42,29.68,29.47,0,0,0,0.00
2012-5-25,70,63,57,66,61,57,100,92,65,29.68,29.56,0,0,0,0.00
2012-5-26,79,69,64,70,65,0,100,87,53,29.56,29.47,0,0,0,0.00
2012-5-27,72,66,63,66,62,50,100,90,46,29.56,29.44,0,0,0,0.00
2012-5-28,89,72,62,72,63,57,100,77,43,29.44,29.32,0,0,0,0.00
2012-5-29,90,73,62,69,63,58,100,75,40,29.35,29.12,0,0,0,0.00
2012-5-30,76,70,64,68,60,53,100,74,50,29.18,29.12,0,0,0,0.00
2012-5-31,89,71,61,65,53,42,100,59,33,29.29,29.09,0,0,0,0.00
2012-6-1,80,65,55,52,47,42,70,54,37,29.47,29.29,0,0,0,0.00
2012-6-2,66,61,55,66,61,46,100,99,70,31.33,29.06,12,0,12,1.26
2012-6-3,82,63,53,60,54,46,100,79,37,29.12,29.00,0,0,0,0.20
2012-6-4,60,53,49,54,47,41,100,81,54,29.18,29.00,16,0,16,0.04
2012-6-5,65,55,49,52,45,41,100,72,46,29.35,29.15,12,0,12,0.04
2012-6-6,72,58,50,61,53,45,100,86,44,29.41,29.32,0,0,0,0.20
2012-6-7,80,62,51,62,53,46,100,77,37,29.38,29.29,0,0,0,0.00
2012-6-8,82,66,54,66,54,49,100,69,40,29.35,29.21,0,0,0,0.00
2012-6-9,77,67,60,54,51,47,72,57,43,29.38,29.21,0,0,0,0.00
2012-6-10,86,70,58,62,52,41,100,57,34,29.65,29.38,0,0,0,0.00
2012-6-11,78,65,56,59,50,44,100,62,40,29.74,29.65,0,0,0,0.00
2012-6-12,71,64,57,63,57,51,100,81,53,29.68,29.38,0,0,0,0.00
2012-6-13,65,63,62,65,63,62,100,100,100,29.50,29.32,0,0,0,0.47
2012-6-14,81,65,57,64,55,44,100,73,39,29.71,29.50,0,0,0,0.00
2012-6-15,83,66,52,53,48,43,98,56,34,29.74,29.68,0,0,0,0.00
2012-6-16,82,64,52,55,48,42,92,59,37,29.77,29.68,0,0,0,0.00
2012-6-17,76,62,54,51,45,40,67,55,40,29.71,29.53,0,0,0,0.00
2012-6-18,77,62,52,56,49,44,100,64,41,29.59,29.56,0,0,0,0.00
2012-6-19,72,64,56,63,55,50,100,74,52,29.62,29.50,0,0,0,0.00
2012-6-20,97,79,63,70,65,61,100,67,38,29.50,29.29,0,0,0,0.00
2012-6-21,100,86,76,68,62,59,58,46,35,29.21,29.15,0,0,0,0.00
2012-6-22,96,78,68,68,64,56,95,64,36,29.21,29.12,0,0,0,0.00
2012-6-23,89,73,63,69,59,48,100,64,39,29.35,29.18,0,0,0,0.00
2012-6-24,89,72,59,58,52,47,79,52,33,29.41,29.29,0,0,0,0.00
2012-6-25,70,65,60,68,60,49,100,87,54,29.29,29.06,0,0,0,1.65
2012-6-26,76,64,54,60,49,44,100,61,42,29.09,29.00,0,0,0,0.00
2012-6-27,85,69,56,55,48,43,65,47,36,29.18,29.03,0,0,0,0.00
2012-6-28,89,73,61,62,51,43,88,48,35,29.21,29.12,0,0,0,0.00
2012-6-29,94,77,66,68,64,54,100,69,38,29.12,28.97,0,0,0,0.00
2012-6-30,95,78,69,62,56,48,70,47,34,29.15,29.06,0,0,0,0.00
2012-7-1,94,77,68,72,63,57,100,67,37,29.23,29.15,0,0,0,0.04
2012-7-2,90,73,64,68,58,53,99,63,38,29.29,29.23,0,0,0,0.00
2012-7-3,90,74,63,65,56,52,91,55,35,29.35,29.26,0,0,0,0.00
2012-7-4,87,75,68,75,66,60,100,76,45,29.26,29.12,0,0,0,0.08
2012-7-5,90,78,68,72,64,57,100,66,38,29.29,29.06,0,0,0,0.00
2012-7-6,91,76,64,67,62,57,100,67,38,29.32,29.26,0,0,0,0.00
2012-7-7,94,78,70,73,64,57,100,64,38,29.29,29.15,0,0,0,0.00
2012-7-8,93,78,67,63,59,55,82,54,34,29.26,29.21,0,0,0,0.00
2012-7-9,90,74,63,59,53,48,63,49,35,29.38,29.26,0,0,0,0.00
2012-7-10,89,73,60,60,55,48,90,55,33,29.53,29.38,0,0,0,0.00
2012-7-11,89,74,66,70,61,54,100,68,36,29.65,29.50,0,0,0,0.00
2012-7-12,90,74,64,71,60,51,100,67,35,29.65,29.59,0,0,0,0.00
2012-7-13,90,74,66,67,60,54,100,63,38,29.65,29.59,0,0,0,0.00
2012-7-14,93,77,69,71,61,55,100,61,37,29.62,29.53,0,0,0,0.00
2012-7-15,90,76,68,75,66,58,100,76,42,29.56,29.32,0,0,0,0.12
2012-7-16,93,79,70,75,66,60,100,70,38,29.32,29.15,0,0,0,0.24
2012-7-17,95,80,70,66,62,57,80,55,37,29.23,29.15,0,0,0,0.00
2012-7-18,100,80,71,76,67,60,100,68,37,29.29,29.15,0,0,0,0.00
2012-7-19,82,70,65,73,58,51,100,66,41,29.41,29.26,0,0,0,0.04
2012-7-20,66,64,60,66,63,58,100,96,77,29.50,29.41,0,0,0,0.31
2012-7-21,85,68,57,68,57,50,100,74,38,29.56,29.47,0,0,0,0.00
2012-7-22,84,70,60,66,58,52,100,71,40,29.59,29.56,0,0,0,0.00
2012-7-23,84,72,64,73,66,60,100,84,49,29.56,29.21,0,0,0,0.04
2012-7-24,95,79,69,76,64,51,100,66,36,29.21,28.97,0,0,0,0.00
2012-7-25,89,73,61,58,50,45,55,46,35,29.26,29.09,0,0,0,0.00
2012-7-26,84,74,68,72,62,51,100,70,50,29.21,29.03,0,0,0,0.00
2012-7-27,93,76,69,76,69,63,100,85,39,29.32,29.06,0,0,0,0.59
2012-7-28,78,70,67,75,68,60,100,94,55,29.38,29.32,0,0,0,2.01
2012-7-29,81,69,63,71,65,58,100,90,50,29.50,29.32,0,0,0,0.39
2012-7-30,84,68,61,70,60,53,100,79,41,29.56,29.50,0,0,0,0.00
2012-7-31,74,68,62,68,61,56,100,81,55,29.56,29.32,0,0,0,0.00
2012-8-1,85,72,64,72,65,30,100,82,20,29.35,29.26,0,0,0,0.00
2012-8-2,90,76,70,74,67,60,100,76,41,29.35,29.26,0,0,0,0.00
2012-8-3,94,79,72,76,69,62,100,76,40,29.53,29.35,0,0,0,0.00
2012-8-4,93,79,73,78,70,61,100,77,40,29.68,29.53,0,0,0,0.00
2012-8-5,88,79,72,78,72,65,100,81,49,29.68,29.41,0,0,0,0.39
2012-8-6,90,76,66,75,63,53,100,69,38,29.41,29.35,0,0,0,0.04
2012-8-7,86,68,61,67,59,55,100,74,39,29.44,29.38,0,0,0,0.00
2012-8-8,88,74,67,74,65,58,100,76,41,29.44,29.38,0,0,0,0.00
2012-8-9,90,76,70,75,68,62,100,80,44,29.41,29.32,0,0,0,0.00
2012-8-10,85,75,71,77,72,65,100,93,53,29.35,29.21,0,0,0,0.79
2012-8-11,85,76,72,79,72,63,100,87,53,29.35,29.23,0,0,0,0.04
2012-8-12,85,75,71,76,70,63,100,85,51,29.35,29.29,0,0,0,0.08
2012-8-13,89,74,65,71,62,56,100,70,39,29.41,29.35,0,0,0,0.00
2012-8-14,87,74,65,70,62,55,100,70,40,29.41,29.32,0,0,0,0.00
2012-8-15,83,71,65,71,66,58,100,85,49,29.35,29.26,0,0,0,1.02
2012-8-16,88,72,65,72,62,55,100,75,39,29.29,29.23,0,0,0,0.00
2012-8-17,88,74,64,69,60,56,98,65,39,29.29,29.21,0,0,0,0.00
2012-8-18,71,66,62,69,65,60,100,97,69,29.35,29.23,0,0,0,0.55
2012-8-19,77,65,55,62,53,47,100,70,41,29.38,29.32,0,0,0,0.00
2012-8-20,80,68,60,61,54,49,94,63,41,29.35,29.26,0,0,0,0.00
2012-8-21,86,71,64,63,58,52,95,66,38,29.53,29.35,0,0,0,0.00
2012-8-22,86,70,60,64,57,52,100,66,38,29.59,29.53,0,0,0,0.00
2012-8-23,90,72,64,70,61,55,100,73,39,29.62,29.56,0,0,0,0.00
2012-8-24,91,73,65,69,61,54,100,71,38,29.68,29.56,0,0,0,0.00
2012-8-25,86,72,65,70,59,51,100,67,39,29.80,29.65,0,0,0,0.00
2012-8-26,87,69,61,66,58,51,100,73,38,29.83,29.71,0,0,0,0.00
2012-8-27,86,70,59,73,62,53,100,78,45,29.71,29.41,0,0,0,0.00
2012-8-28,88,76,68,74,64,53,100,71,40,29.41,29.18,10,0,10,0.04
2012-8-29,81,67,58,60,49,43,90,54,34,29.44,29.29,0,0,0,0.00
2012-8-30,84,66,55,54,48,44,71,54,33,29.53,29.44,0,0,0,0.00
2012-8-31,91,73,62,62,55,48,85,54,37,29.47,29.29,0,0,0,0.00
2012-9-1,92,74,65,62,56,53,66,54,38,29.56,29.32,0,0,0,0.00
2012-9-2,86,69,61,66,56,51,100,67,39,29.62,29.50,0,0,0,0.00
2012-9-3,84,66,58,66,56,49,100,73,40,29.68,29.59,0,0,0,0.00
2012-9-4,75,70,65,75,69,55,100,97,72,29.62,29.35,0,0,0,2.05
2012-9-5,75,73,69,75,74,69,100,100,100,29.35,29.23,4,0,4,1.10
2012-9-6,76,70,64,72,66,59,100,90,61,29.38,29.26,0,0,0,0.00
2012-9-7,87,74,68,75,68,62,100,85,46,29.41,29.35,0,0,0,0.00
2012-9-8,77,73,63,75,69,61,100,90,58,29.38,29.12,6,0,6,0.12
2012-9-9,77,64,60,63,56,47,100,77,41,29.32,29.21,0,0,0,0.08
2012-9-10,78,62,52,60,48,38,100,66,38,29.56,29.32,8,0,8,0.00
2012-9-11,79,58,47,51,43,38,79,59,35,29.74,29.56,0,0,0,0.00
2012-9-12,86,64,52,61,51,42,99,67,36,29.83,29.71,0,0,0,0.00
2012-9-13,89,67,60,68,58,52,100,77,38,29.83,29.74,0,0,0,0.00
2012-9-14,90,68,61,69,59,52,100,78,38,29.74,29.53,0,0,0,0.00
2012-9-15,84,65,54,64,51,41,100,66,36,29.53,29.41,15,0,15,0.00
2012-9-16,86,60,50,53,43,40,76,55,33,29.53,29.41,9,0,9,0.00
2012-9-17,86,61,49,56,48,42,95,65,36,29.53,29.47,0,0,0,0.00
2012-9-18,72,66,58,71,63,56,100,89,65,29.47,29.12,16,1,16,0.24
2012-9-19,85,64,52,71,51,40,100,66,33,29.59,29.12,12,1,12,1.18
2012-9-20,84,57,47,54,46,42,100,68,36,29.68,29.56,0,0,0,0.00
2012-9-21,82,58,49,55,49,44,100,76,37,29.59,29.44,0,0,0,0.00
2012-9-22,88,52,-47,76,22,-54,100,64,20,29.44,29.38,0,0,0,0.00
2012-9-23,87,30,-33,54,11,-54,90,42,20,274.36,29.38,0,0,364,0.00
2012-9-24,86,54,44,54,42,34,100,68,33,29.56,29.50,0,0,0,0.00
2012-9-25,75,59,49,50,42,33,71,54,41,29.62,29.56,12,0,12,0.00
2012-9-26,73,65,59,66,57,50,100,76,52,29.59,29.44,15,0,15,0.00
2012-9-27,80,66,60,66,57,47,100,76,40,29.65,29.44,10,0,10,0.00
2012-9-28,65,60,56,65,54,45,100,83,57,29.65,29.32,20,1,20,1.10
2012-9-29,59,57,56,59,57,56,100,100,100,29.32,29.26,10,1,10,0.12
2012-9-30,66,57,52,59,54,46,100,90,55,29.29,29.12,7,0,7,0.00
2012-10-1,73,57,49,51,47,42,100,73,42,29.38,29.15,12,0,12,0.00
2012-10-2,68,60,55,62,53,46,100,79,52,29.47,29.38,0,0,0,0.28
2012-10-3,71,66,62,69,65,62,100,99,85,29.56,29.41,0,0,0,0.04
2012-10-4,68,65,62,66,64,58,100,96,73,29.56,29.44,0,0,0,0.04
2012-10-5,81,66,61,68,58,48,100,81,40,29.47,29.35,0,0,0,0.08
2012-10-6,78,64,50,67,56,42,100,79,44,29.35,29.15,15,0,15,0.08
2012-10-7,56,49,44,50,42,34,100,78,48,29.50,29.35,0,0,0,0.08
2012-10-8,52,45,42,52,45,42,100,100,74,29.68,29.47,0,0,0,0.04
2012-10-9,57,54,50,51,44,41,99,68,59,29.65,29.53,12,0,12,0.04
2012-10-10,66,56,50,66,53,35,100,92,56,29.53,29.15,16,0,16,0.28
2012-10-11,64,50,42,39,34,30,75,55,38,29.59,29.26,16,2,16,0.04
2012-10-12,54,46,36,38,32,22,75,57,46,29.83,29.44,21,2,21,0.04
2012-10-13,61,41,30,34,25,20,71,54,37,29.94,29.74,11,0,11,0.04
2012-10-14,71,58,45,59,45,31,97,62,43,29.77,29.38,15,2,19,0.04
2012-10-15,71,64,60,64,56,51,100,78,53,29.38,29.03,15,1,15,0.04
2012-10-16,65,52,42,62,38,28,100,61,38,29.29,28.97,21,5,21,0.04
2012-10-17,66,47,35,42,34,28,100,64,38,29.41,29.26,11,0,11,0.04
2012-10-18,74,54,43,58,46,39,100,79,41,29.50,29.41,11,0,11,0.04
2012-10-19,66,63,58,66,62,54,100,98,76,29.47,29.12,15,1,15,0.35
2012-10-20,76,64,52,67,57,37,100,82,41,29.18,29.03,15,1,15,2.09
2012-10-21,67,53,44,43,37,33,77,55,40,29.35,29.18,20,2,20,0.04
2012-10-22,66,55,47,43,37,34,61,51,40,29.44,29.35,21,4,21,0.04
2012-10-23,65,54,46,53,40,34,100,61,43,29.53,29.44,11,1,11,0.08
2012-10-24,56,52,49,53,44,36,100,74,51,29.65,29.53,8,0,8,0.04
2012-10-25,65,53,47,46,40,35,89,60,40,29.74,29.65,11,0,11,0.04
2012-10-26,66,56,48,51,46,40,100,69,44,29.68,29.56,0,0,0,0.04
2012-10-27,66,59,53,48,45,38,72,60,49,29.56,29.35,12,1,12,0.04
2012-10-28,60,54,51,52,44,37,100,70,54,29.38,29.06,26,6,26,0.04
2012-10-29,62,56,52,62,55,50,100,99,88,29.06,28.29,48,12,48,0.63
2012-11-4,49,40,34,28,24,22,61,52,44,29.35,29.26,16,6,16,0.71
2012-11-5,60,38,27,34,21,12,61,49,37,29.56,29.32,21,7,21,0.71
2012-11-6,58,33,22,32,16,11,64,50,37,29.65,29.53,16,2,16,0.71
2012-11-7,39,34,30,33,25,16,100,71,53,29.53,29.03,39,12,39,0.71
2012-11-8,40,36,31,32,26,23,81,66,57,29.18,28.94,46,19,46,0.71
2012-11-9,64,43,34,37,24,20,60,47,36,29.56,29.18,26,11,26,0.71
2012-11-10,69,47,37,42,29,22,64,51,37,29.88,29.56,17,2,17,0.71
2012-11-11,68,53,43,52,41,32,100,66,42,29.97,29.88,17,2,17,0.71
2012-11-12,71,58,50,64,53,46,100,84,52,29.94,29.68,197,4,197,0.71
2012-11-13,63,50,39,63,46,26,100,88,58,29.85,29.56,24,9,24,0.71
2012-11-14,65,40,31,36,23,17,69,52,35,29.97,29.85,25,7,25,0.71
2012-11-15,55,37,30,33,23,17,71,58,43,29.88,29.71,26,4,26,0.71
2012-11-16,51,38,32,31,24,17,83,58,41,29.85,29.71,16,3,16,0.71
2012-11-17,68,39,29,41,23,16,71,55,37,30.12,29.85,15,4,15,0.71
2012-11-18,68,38,26,40,27,23,100,68,37,30.18,30.06,15,4,15,0.71
2012-11-19,54,37,28,34,29,23,100,74,46,30.06,29.68,17,6,17,0.71
2012-11-20,62,39,29,39,30,26,100,75,41,29.68,29.53,12,4,12,0.71
2012-11-21,63,41,32,39,29,22,99,66,41,29.65,29.56,17,4,17,0.71
2012-11-22,71,44,33,45,37,33,100,81,39,29.71,29.56,12,3,12,0.71
2012-11-23,56,45,36,48,40,35,100,85,49,29.56,29.06,12,1,12,0.71
2012-11-24,56,42,31,48,25,11,100,55,38,29.12,28.97,35,10,35,0.71
2012-11-25,50,33,25,26,15,11,60,48,39,29.29,29.12,28,5,28,0.71
2012-11-26,56,37,29,30,18,14,55,47,37,29.68,29.29,28,4,28,0.71
2012-11-27,37,34,30,34,27,15,100,80,50,29.74,29.59,8,0,8,0.71
2012-11-28,49,34,28,33,26,16,100,75,48,29.62,29.53,14,2,14,0.71
2012-11-29,47,33,24,25,19,16,76,56,42,29.74,29.62,22,3,22,0.71
2012-11-30,47,34,30,28,18,15,58,52,44,29.97,29.68,17,4,17,0.71
2012-12-1,41,35,31,38,25,15,91,68,51,30.03,29.88,20,5,20,0.71
2012-12-2,57,46,36,50,41,33,100,83,56,29.88,29.50,15,3,15,0.71
2012-12-3,66,49,39,50,40,31,100,74,43,29.71,29.47,22,4,22,0.71
2012-12-4,58,47,34,58,47,32,100,99,79,29.74,29.41,12,3,15,0.00
2012-12-5,60,48,32,57,35,13,100,64,41,29.56,29.29,31,10,31,0.71
2012-12-6,52,32,24,27,13,8,57,45,39,29.77,29.56,22,5,22,0.71
2012-12-7,46,38,26,45,29,13,100,71,49,29.71,29.44,10,0,10,0.71
2012-12-8,51,48,45,51,48,45,100,100,100,29.44,29.23,10,1,10,0.71
2012-12-9,54,44,39,48,38,27,100,80,46,29.68,29.38,21,5,21,0.71
2012-12-10,60,55,44,60,55,44,100,100,100,29.47,28.91,17,3,17,0.91
2012-12-11,58,43,32,56,32,18,100,65,42,29.59,28.94,26,8,26,0.00
2012-12-12,48,34,28,26,19,16,64,55,42,29.88,29.59,16,4,16,0.00
2012-12-13,58,34,26,33,21,17,78,60,40,29.91,29.74,12,2,12,0.00
2012-12-14,56,37,28,33,22,18,77,55,40,29.74,29.50,15,2,15,0.00
2012-12-15,57,36,29,33,24,20,79,60,40,29.74,29.59,17,2,17,0.00
2012-12-16,39,36,33,39,30,22,100,79,59,29.71,29.38,26,6,26,0.20
2012-12-17,45,42,38,45,42,38,100,100,100,29.38,29.09,21,5,21,0.28
2012-12-18,52,46,42,52,45,29,100,98,65,29.09,28.79,17,3,17,0.94
2012-12-19,52,41,37,31,25,21,63,53,44,29.44,28.88,35,13,35,0.94
2012-12-20,58,38,29,33,24,19,84,57,40,29.62,29.32,21,4,21,0.94
2012-12-21,56,45,37,56,41,26,100,86,58,29.38,28.47,33,9,33,0.94
2012-12-22,42,34,31,24,17,14,61,49,41,29.09,28.76,37,13,37,0.75
2012-12-23,45,34,30,23,17,14,61,49,42,29.29,29.09,29,3,29,0.75
2012-12-24,44,32,28,22,15,12,71,50,43,29.47,29.29,17,4,17,0.00
2012-12-25,35,32,25,34,29,15,100,89,66,29.65,29.32,16,3,16,0.16
2012-12-26,38,29,20,34,20,10,100,69,49,29.71,29.09,31,9,31,0.00
2012-12-27,46,38,30,46,36,18,100,93,61,29.09,28.59,42,13,42,1.54
2012-12-28,46,29,24,24,16,12,72,57,42,29.44,29.06,33,10,33,0.00
2012-12-29,36,30,24,32,24,16,100,81,60,29.41,28.73,17,6,17,0.00
2012-12-30,32,26,20,30,14,3,100,61,46,29.44,28.79,36,14,36,0.00
2012-12-31,37,28,16,19,12,2,60,52,47,29.50,29.21,21,4,21,0.00
2013-1-1,38,31,20,21,14,2,61,50,44,29.32,29.15,25,8,25,0.00